Flag for U.S.A. Weather past 2 weeks in Santa Clara, California, U.S.A.

Now
76 °F

Scattered clouds.


Feels Like: 78 °F
Forecast: 61 / 75 °F
Wind: 15 mph from Northwest

Location: San Jose International Airport

Current Time: Jul 6, 2015 at 3:24:14 PM

Latest Report: Jul 6, 2015 at 1:53 PM


Visibility: 10 mi

Pressure: 30.05 "Hg

Humidity: 54%

Dew point: 58 °F

Location of Santa ClaraLocation

Historic Weather in Santa Clara — Graph

°F

Santa Clara temperature yesterday

Maximum temperature yesterday: 79 °F (at 12:53 PM)
Minimum temperature yesterday: 60 °F (at 5:53 AM)
Average temperature yesterday: 68 °F

Past Weeks' High & Low Weather Summary

 TemperatureHumidityPressure
High92 °F (Jun 30, 3:53 PM)90% (Jun 26, 5:53 AM)30.08 "Hg (Jun 26, 5:53 AM)
Low55 °F (Jun 22, 3:53 AM)25% (Jun 30, 3:53 PM)29.78 "Hg (Jun 30, 5:53 PM)
Average69 °F66%29.93 "Hg
* Reported Jun 21 1:53 PM — Jul 6 1:53 PM, Santa Clara, Weather by CustomWeather, © 2015

Note: Actual official high and low records may vary slightly from our data, if they occured in-between our weather recording intervals... More about our weather records

Advertising

Santa Clara weather history for previous 24 hours

 ConditionsComfort  
Time TempWeatherWind HumidityBarometerVisibility
1:53 PM
Mon, Jul 6
76 °FScattered clouds.15 mph54%30.05 "Hg10 mi
12:53 PM75 °FScattered clouds.10 mph54%30.06 "Hg10 mi
11:53 AM72 °FScattered clouds.8 mph59%30.07 "Hg10 mi
10:53 AM70 °FScattered clouds.5 mph64%30.07 "Hg10 mi
9:53 AM68 °FScattered clouds.5 mph68%30.08 "Hg10 mi
8:53 AM65 °FBroken clouds.7 mph76%30.08 "Hg10 mi
7:53 AM64 °FBroken clouds.6 mph78%30.06 "Hg10 mi
6:53 AM63 °FMostly cloudy.8 mph81%30.06 "Hg10 mi
5:53 AM63 °FMostly cloudy.5 mph81%30.04 "Hg10 mi
4:53 AM63 °FOvercast.3 mph81%30.02 "Hg10 mi
3:53 AM63 °FOvercast.3 mph81%30.01 "Hg10 mi
2:53 AM63 °FOvercast.No wind81%30.01 "Hg10 mi
1:53 AM63 °FOvercast.5 mph81%30.01 "Hg10 mi
12:53 AM63 °FOvercast.8 mph81%30.01 "Hg10 mi
11:53 PM
Sun, Jul 5
63 °FOvercast.7 mph81%30.00 "Hg10 mi
10:53 PM63 °FPassing clouds.6 mph81%29.99 "Hg10 mi
9:53 PM63 °FPassing clouds.12 mph81%29.98 "Hg10 mi
8:53 PM64 °FPassing clouds.12 mph78%29.96 "Hg10 mi
7:53 PM68 °FScattered clouds.14 mph70%29.95 "Hg10 mi
6:53 PM72 °FScattered clouds.14 mph61%29.93 "Hg10 mi
5:53 PM74 °FPartly sunny.14 mph60%29.91 "Hg10 mi
4:53 PM76 °FPartly sunny.17 mph58%29.91 "Hg10 mi
3:53 PM77 °FScattered clouds.15 mph56%29.91 "Hg10 mi
Weather by CustomWeather, © 2015

See weather overviewHow to use our weather pages